DateTimeUTC,F1_A11,F1_S11,BsB_S11,BsG_S11,BsR_S11,BbsB_S11,BbsG_S11,BbsR_S11,BaB_A11,BaG_A11,BaR_A11,Tu_S11,T_S11,Uu_S11,U_S11,P_S11,T1_A11
2021-03-31T11:00:00Z,00000200,20000000,,,,,,,-000.27,-000.14,-000.29,16.7,23.7,01.6,01.0,0647.7,30.9
2021-03-31T11:01:00Z,00000200,20000000,,,,,,,0000.12,-000.11,0000.20,16.7,23.7,01.5,01.0,0647.6,30.9
2021-03-31T11:02:00Z,00000200,20000000,,,,,,,0000.01,-000.14,-000.05,16.7,23.7,01.5,01.0,0647.6,30.9
2021-03-31T11:03:00Z,00000200,60000000,,,,,,,0000.33,0000.39,0000.07,16.7,23.7,01.5,01.0,0647.6,30.9
2021-03-31T11:04:00Z,00000200,41000000,-000.23,0000.57,0000.27,0000.06,-000.07,-000.24,-000.08,0000.39,0000.21,16.8,23.5,01.7,01.1,0648.5,30.9
2021-03-31T11:05:00Z,00000200,01000000,0000.64,0000.31,0000.46,-000.02,-000.00,0000.02,0000.16,-000.28,-000.08,16.8,23.5,01.6,01.1,0648.5,30.9
2021-03-31T11:06:00Z,00000200,01000000,-000.00,0000.48,0000.18,0000.31,-000.07,0000.08,0000.63,0000.51,0000.38,16.8,23.4,01.6,01.1,0648.5,30.9
2021-03-31T11:07:00Z,00000200,01000000,0000.05,0000.28,0000.35,0000.11,-000.17,-000.15,0000.62,0000.48,0000.21,16.8,23.4,01.7,01.1,0648.5,30.9
2021-03-31T11:08:00Z,00000200,00000000,0000.31,0000.60,0000.20,-000.06,-000.14,0000.00,0000.05,0000.04,0000.36,16.8,23.4,01.9,01.2,0648.5,30.9
2021-03-31T11:09:00Z,00000200,01000000,0000.07,0000.35,0000.42,0000.08,-000.00,0000.08,0000.01,0000.03,0000.24,16.8,23.4,01.7,01.1,0648.6,30.9
2021-03-31T11:10:00Z,00000200,01000000,0000.17,0000.36,0000.35,0000.22,0000.23,-000.08,0000.40,0000.47,0000.35,16.8,23.4,01.8,01.2,0648.6,30.9
2021-03-31T11:11:00Z,00000200,01000000,0000.35,0000.21,0000.29,0000.54,-000.03,-000.02,-000.12,0000.28,0000.08,16.8,23.4,01.8,01.2,0648.5,30.9
2021-03-31T11:12:00Z,00000200,01000000,0000.32,0000.58,-000.01,-000.16,-000.30,-000.10,0000.34,0000.02,-000.23,16.9,23.4,01.8,01.2,0648.5,30.9
2021-03-31T11:13:00Z,00000200,01000000,0000.82,0000.29,0000.18,-000.01,-000.02,0000.07,0000.12,0000.39,-000.02,16.9,23.4,01.8,01.2,0648.4,30.9
2021-03-31T11:14:00Z,00000200,00000000,0000.48,0000.49,0000.20,-000.17,-000.07,0000.12,0000.44,-000.20,0000.17,16.9,23.4,01.8,01.2,0648.5,30.9
2021-03-31T11:15:00Z,00000200,01000000,0000.98,0000.41,0000.30,0000.12,0000.23,0000.19,0000.13,0000.55,0000.24,16.9,23.4,01.8,01.2,0648.6,30.9
2021-03-31T11:16:00Z,00000200,01000000,0000.71,0000.43,0000.44,0000.16,-000.10,0000.04,0000.15,0000.48,0000.65,16.9,23.4,01.9,01.3,0648.6,30.9
2021-03-31T11:17:00Z,00000200,01000000,0001.04,0000.32,0000.10,-000.17,-000.05,-000.12,-000.26,-000.20,-000.24,16.9,23.4,01.8,01.2,0648.5,30.9
2021-03-31T11:18:00Z,00000200,01000000,0001.06,0000.44,0000.43,0000.37,-000.15,-000.06,0000.89,0000.07,0000.43,16.9,23.4,01.9,01.3,0648.6,30.9
2021-03-31T11:19:00Z,00000200,00000000,0000.31,0000.53,0000.28,0000.05,-000.02,-000.17,0000.06,-000.07,-000.15,16.9,23.4,01.9,01.3,0648.6,30.9
2021-03-31T11:20:00Z,00000200,01000000,0000.14,0000.36,0000.01,0000.37,-000.16,-000.03,0000.39,0000.63,0000.20,16.8,23.4,01.9,01.3,0648.7,30.9
2021-03-31T11:21:00Z,00000200,00000000,0000.79,0000.45,0000.16,0000.27,-000.17,-000.12,-000.09,0000.29,0000.17,16.8,23.4,01.9,01.3,0648.6,30.9
2021-03-31T11:22:00Z,00000200,00000000,0000.53,0000.45,0000.23,0000.15,-000.07,0000.04,-000.51,-000.32,-000.26,16.8,23.4,02.0,01.3,0648.6,30.9
2021-03-31T11:23:00Z,00000200,01000000,-000.08,0000.09,0000.11,-000.08,-000.03,0000.20,0001.17,0000.71,0000.72,16.8,23.4,01.9,01.3,0648.6,30.9
2021-03-31T11:24:00Z,00000200,00000000,0000.48,0000.43,0000.31,-000.07,-000.26,0000.17,0000.10,-000.38,0000.07,16.8,23.4,01.9,01.3,0648.6,30.9
2021-03-31T11:25:00Z,00000200,01000000,0000.12,0000.11,0000.15,-000.09,-000.06,0000.06,0000.57,0000.42,0000.33,16.8,23.4,02.0,01.3,0648.5,30.9
2021-03-31T11:26:00Z,00000200,00000000,0000.01,0000.55,0000.20,0000.02,-000.18,-000.04,-000.33,0000.35,-000.22,16.8,23.4,02.0,01.3,0648.7,30.9
2021-03-31T11:27:00Z,00000200,01000000,0000.38,0000.37,0000.43,-000.27,-000.19,0000.04,0000.36,-000.06,0000.39,16.8,23.4,01.9,01.3,0648.6,30.9
2021-03-31T11:28:00Z,00000200,00000000,0000.43,0000.31,0000.15,-000.27,0000.25,0000.24,0000.44,0000.98,0000.39,16.9,23.4,01.9,01.3,0648.6,30.9
2021-03-31T11:29:00Z,00000200,01000000,0000.09,0000.42,0000.18,-000.28,0000.13,-000.17,0000.33,-000.39,0000.01,17.0,23.4,01.9,01.3,0648.6,30.9
2021-03-31T11:30:00Z,00000200,00000000,0000.30,0000.41,0000.20,0000.26,-000.32,-000.22,-000.50,0000.02,-000.03,17.0,23.5,01.9,01.3,0648.7,30.9
2021-03-31T11:31:00Z,00000200,01000000,0000.52,0000.44,0000.27,-000.07,-000.13,-000.00,0000.46,0000.10,0000.44,17.1,23.5,01.9,01.3,0648.6,30.9
2021-03-31T11:32:00Z,00000200,01000000,0000.37,0000.38,0000.41,0000.26,0000.01,-000.26,0000.36,0000.46,-000.01,17.1,23.5,01.8,01.2,0648.7,30.9
2021-03-31T11:33:00Z,00000200,01000000,0000.06,0000.44,0000.20,-000.82,-000.00,0000.27,0000.07,0000.22,-000.04,17.1,23.5,01.9,01.3,0648.6,30.9
2021-03-31T11:34:00Z,00000200,01000000,0000.20,0000.24,0000.22,0000.13,-000.16,0000.00,-000.15,-000.43,0000.07,17.1,23.5,01.9,01.3,0648.7,30.9
2021-03-31T11:35:00Z,00000200,01000000,0000.48,0000.32,0000.43,0000.28,-000.13,0000.13,-000.18,0000.40,0000.24,17.0,23.5,01.9,01.3,0648.7,30.9
2021-03-31T11:36:00Z,00000200,01000000,0000.39,0000.28,0000.26,0000.14,0000.11,0000.08,0000.32,0000.34,0000.10,17.0,23.5,01.9,01.3,0648.7,30.9
2021-03-31T11:37:00Z,00000200,01000000,0000.27,0000.45,0000.26,0000.00,0000.16,0000.01,-000.02,-000.04,0000.47,17.0,23.5,01.9,01.2,0648.7,30.9
2021-03-31T11:38:00Z,00000200,00000000,0000.22,0000.27,0000.08,-000.21,-000.08,-000.01,0000.09,0000.05,-000.57,17.0,23.5,01.9,01.3,0648.7,30.9
2021-03-31T11:39:00Z,00000200,01000000,0000.21,0000.12,0000.02,-000.12,-000.19,-000.22,0000.48,0000.29,0000.54,17.0,23.5,01.9,01.3,0648.7,30.9
2021-03-31T11:40:00Z,00000200,01000000,0000.29,0000.24,0000.20,-000.28,-000.01,-000.01,0000.11,0000.39,-000.02,16.9,23.5,02.0,01.3,0648.7,30.9
2021-03-31T11:41:00Z,00000200,01000000,0000.28,0000.43,0000.31,-000.45,-000.08,-000.04,0000.58,0000.13,0000.00,16.9,23.5,01.9,01.3,0648.7,30.9
2021-03-31T11:42:00Z,00000200,01000000,0001.13,0000.12,0000.01,0000.10,-000.00,0000.10,0000.39,0000.06,0000.39,16.9,23.5,01.9,01.3,0648.8,30.9
2021-03-31T11:43:00Z,00000200,01000000,0000.30,0000.50,0000.25,-000.51,-000.17,0000.00,-000.23,0000.06,0000.04,16.9,23.5,02.0,01.3,0648.8,30.9
2021-03-31T11:44:00Z,00000200,00000000,0000.60,0000.63,-000.07,0000.24,-000.17,-000.09,0000.42,0000.27,0000.34,16.9,23.5,02.1,01.4,0648.9,30.9
2021-03-31T11:45:00Z,00000200,01000000,0000.73,0000.39,0000.16,0000.13,0000.02,0000.07,0000.19,0000.40,0000.33,16.9,23.5,01.9,01.3,0648.8,30.9
2021-03-31T11:46:00Z,00000200,00000000,0000.51,0000.42,0000.14,-000.17,-000.12,-000.07,0000.02,-000.34,-000.07,16.8,23.4,02.1,01.4,0648.9,30.9
2021-03-31T11:47:00Z,00000200,00000000,0000.44,0000.29,0000.07,-000.18,0000.01,-000.08,0000.29,0000.55,-000.02,16.8,23.4,02.0,01.3,0648.9,30.9
2021-03-31T11:48:00Z,00000200,01000000,0000.72,0000.38,0000.13,0000.36,-000.21,0000.03,0000.24,0000.27,0000.39,16.8,23.5,02.1,01.4,0648.9,30.9
2021-03-31T11:49:00Z,00000200,00000000,0000.03,0000.57,0000.21,-000.46,0000.08,0000.19,0000.49,0000.61,0000.17,16.8,23.4,02.0,01.3,0648.9,30.9
2021-03-31T11:50:00Z,00000200,01000000,0000.57,0000.27,0000.21,0000.06,-000.14,0000.01,0000.78,0000.28,0000.34,16.8,23.4,02.1,01.4,0648.8,30.9
2021-03-31T11:51:00Z,00000200,00000000,0000.35,0000.31,0000.21,0000.09,-000.18,-000.05,-000.02,0000.14,0000.41,16.8,23.4,02.3,01.5,0648.8,30.9
2021-03-31T11:52:00Z,00000200,00000000,0000.57,0000.42,0000.27,0000.24,-000.09,-000.29,0000.04,0000.28,0000.25,16.8,23.4,02.2,01.5,0648.8,30.9
2021-03-31T11:53:00Z,00000200,01000000,0000.54,0000.08,0000.12,0000.22,-000.13,0000.05,0000.19,0000.07,-000.02,16.8,23.4,02.1,01.4,0648.8,30.9
2021-03-31T11:54:00Z,00000200,00000000,-000.04,0000.38,-000.06,-000.03,-000.16,-000.07,0000.19,-000.08,0000.35,16.8,23.4,02.3,01.5,0648.7,30.9
2021-03-31T11:55:00Z,00000200,00000000,0000.18,0000.30,0000.32,0000.42,0000.02,0000.33,0000.64,0000.78,0000.16,16.8,23.4,02.3,01.5,0648.7,30.9
2021-03-31T11:56:00Z,00000200,00000000,0000.38,0000.10,0000.24,0000.47,0000.01,-000.07,0000.58,0000.40,0000.49,16.8,23.4,02.4,01.6,0648.7,30.9
2021-03-31T11:57:00Z,00000200,40000000,,,,,,,-000.17,-000.11,0000.06,16.9,23.4,02.2,01.5,0648.8,30.9
2021-03-31T11:58:00Z,00000200,60000000,,,,,,,-000.02,0000.06,-000.11,16.7,23.5,02.0,01.3,0647.8,30.9
2021-03-31T11:59:00Z,00000200,20000000,,,,,,,-000.45,-000.09,-000.19,16.7,23.6,02.2,01.5,0647.8,30.9
